• In Österreich
  • Länderverzeichnis
  • Für 7 Tage
  • Wassertemperatur
  • Satellitenkarten
  • Wetterkarte
  • News
  • Widgets
  • user-avatar
    Anmelden

    Stündliche Wetter Bondy

    Heute, 18 Januar, Donnerstag

    Zeit Temperatur Niederschläge Wind Luftdruck Luftfeuchtigkeit
    00:00 +4°C° 0 mm 6 m/S 753 mmHg 79%
    01:00 +5°C° 1,3 mm 8 m/S 752 mmHg 81%
    02:00 +5°C° 1,3 mm 9 m/S 751 mmHg 82%
    03:00 +6°C° 1,3 mm 10 m/S 750 mmHg 83%
    04:00 +7°C° 0,6 mm 10 m/S 749 mmHg 83%
    05:00 +7°C° 0,6 mm 10 m/S 749 mmHg 83%
    06:00 +8°C° 0,6 mm 10 m/S 748 mmHg 83%
    07:00 +9°C° 0,3 mm 10 m/S 748 mmHg 82%
    08:00 +10°C° 0,3 mm 9 m/S 748 mmHg 82%
    09:00 +10°C° 0,3 mm 9 m/S 749 mmHg 81%
    10:00 +10°C° 0,1 mm 8 m/S 749 mmHg 79%
    11:00 +10°C° 0,1 mm 8 m/S 749 mmHg 76%
    12:00 +9°C° 0,1 mm 7 m/S 750 mmHg 73%
    13:00 +9°C° 0,1 mm 6 m/S 750 mmHg 74%
    14:00 +9°C° 0,1 mm 6 m/S 749 mmHg 75%
    15:00 +9°C° 0,1 mm 5 m/S 749 mmHg 76%
    16:00 +8°C° 0,1 mm 5 m/S 750 mmHg 76%
    17:00 +8°C° 0,1 mm 6 m/S 750 mmHg 75%
    18:00 +8°C° 0,1 mm 7 m/S 750 mmHg 75%
    19:00 +7°C° 0,1 mm 6 m/S 750 mmHg 76%
    20:00 +5°C° 0,1 mm 6 m/S 751 mmHg 76%
    21:00 +5°C° 0,1 mm 6 m/S 751 mmHg 77%
    22:00 +6°C° 0,1 mm 5 m/S 752 mmHg 77%
    23:00 +5°C° 0,1 mm 5 m/S 752 mmHg 76%

    Morgen, 19 Januar, Freitag

    Zeit Temperatur Niederschläge Wind Luftdruck Luftfeuchtigkeit
    00:00 +5°C° 0,1 mm 5 m/S 753 mmHg 76%
    01:00 +5°C° 0,1 mm 5 m/S 753 mmHg 76%
    02:00 +4°C° 0,1 mm 4 m/S 753 mmHg 77%
    03:00 +4°C° 0,1 mm 4 m/S 754 mmHg 77%
    04:00 +4°C° 0,1 mm 4 m/S 754 mmHg 79%
    05:00 +3°C° 0,1 mm 4 m/S 754 mmHg 80%
    06:00 +3°C° 0,1 mm 4 m/S 754 mmHg 82%
    07:00 +3°C° 0 mm 4 m/S 754 mmHg 82%
    08:00 +3°C° 0 mm 4 m/S 754 mmHg 82%
    09:00 +3°C° 0 mm 4 m/S 755 mmHg 82%
    10:00 +4°C° 0,2 mm 4 m/S 754 mmHg 80%
    11:00 +5°C° 0,2 mm 4 m/S 754 mmHg 78%
    12:00 +5°C° 0,2 mm 4 m/S 754 mmHg 76%
    13:00 +5°C° 0,2 mm 5 m/S 754 mmHg 74%
    14:00 +5°C° 0,2 mm 5 m/S 754 mmHg 72%
    15:00 +6°C° 0,2 mm 5 m/S 754 mmHg 70%
    16:00 +5°C° 0,1 mm 5 m/S 754 mmHg 72%
    17:00 +4°C° 0,1 mm 4 m/S 755 mmHg 74%
    18:00 +4°C° 0,1 mm 4 m/S 755 mmHg 77%
    19:00 +3°C° 0,1 mm 5 m/S 755 mmHg 77%
    20:00 +3°C° 0,1 mm 5 m/S 755 mmHg 78%
    21:00 +3°C° 0,1 mm 6 m/S 755 mmHg 79%
    22:00 +3°C° 0,2 mm 5 m/S 755 mmHg 80%
    23:00 +3°C° 0,2 mm 5 m/S 755 mmHg 81%

    übermorgen, 20 Januar, Samstag

    Zeit Temperatur Niederschläge Wind Luftdruck Luftfeuchtigkeit
    00:00 +3°C° 0,2 mm 5 m/S 755 mmHg 83%
    01:00 +3°C° 0,3 mm 5 m/S 755 mmHg 84%
    02:00 +4°C° 0,3 mm 4 m/S 754 mmHg 85%
    03:00 +4°C° 0,3 mm 4 m/S 754 mmHg 87%
    04:00 +4°C° 0,4 mm 4 m/S 753 mmHg 88%
    05:00 +4°C° 0,4 mm 3 m/S 753 mmHg 90%
    06:00 +4°C° 0,4 mm 3 m/S 752 mmHg 91%
    07:00 +4°C° 0,4 mm 3 m/S 752 mmHg 92%
    08:00 +5°C° 0,4 mm 2 m/S 752 mmHg 93%
    09:00 +5°C° 0,4 mm 2 m/S 751 mmHg 94%
    10:00 +6°C° 0,5 mm 2 m/S 751 mmHg 93%
    11:00 +6°C° 0,5 mm 2 m/S 751 mmHg 93%
    12:00 +7°C° 0,5 mm 1 m/S 751 mmHg 92%
    13:00 +6°C° 0,1 mm 2 m/S 751 mmHg 89%
    14:00 +7°C° 0,1 mm 2 m/S 751 mmHg 85%
    15:00 +7°C° 0,1 mm 3 m/S 752 mmHg 82%
    16:00 +5°C° 0 mm 3 m/S 753 mmHg 84%
    17:00 +5°C° 0 mm 2 m/S 754 mmHg 86%
    18:00 +4°C° 0 mm 2 m/S 755 mmHg 88%
    19:00 +4°C° 0 mm 2 m/S 756 mmHg 88%
    20:00 +4°C° 0 mm 2 m/S 756 mmHg 88%
    21:00 +5°C° 0 mm 1 m/S 757 mmHg 88%
    22:00 +5°C° 0 mm 1 m/S 758 mmHg 88%
    23:00 +5°C° 0 mm 1 m/S 758 mmHg 88%

    21 Januar, Sonntag

    Zeit Temperatur Niederschläge Wind Luftdruck Luftfeuchtigkeit
    00:00 +4°C° 0 mm 2 m/S 758 mmHg 88%
    01:00 +4°C° 0,4 mm 2 m/S 758 mmHg 89%
    02:00 +4°C° 0,4 mm 2 m/S 758 mmHg 91%
    03:00 +4°C° 0,4 mm 2 m/S 757 mmHg 92%
    04:00 +4°C° 1 mm 3 m/S 757 mmHg 92%
    05:00 +4°C° 1 mm 4 m/S 757 mmHg 92%
    06:00 +4°C° 1 mm 4 m/S 756 mmHg 93%
    07:00 +4°C° 0,6 mm 4 m/S 756 mmHg 93%
    08:00 +5°C° 0,6 mm 4 m/S 756 mmHg 94%
    09:00 +6°C° 0,6 mm 5 m/S 756 mmHg 94%
    10:00 +7°C° 0,1 mm 5 m/S 756 mmHg 93%
    11:00 +9°C° 0,1 mm 5 m/S 756 mmHg 92%
    12:00 +10°C° 0,1 mm 6 m/S 755 mmHg 90%
    13:00 +11°C° 0,1 mm 6 m/S 755 mmHg 89%
    14:00 +11°C° 0,1 mm 7 m/S 755 mmHg 88%
    15:00 +11°C° 0,1 mm 7 m/S 755 mmHg 87%
    16:00 +11°C° 0 mm 7 m/S 756 mmHg 87%
    17:00 +11°C° 0 mm 7 m/S 756 mmHg 87%
    18:00 +11°C° 0 mm 7 m/S 756 mmHg 87%
    19:00 +11°C° 0,2 mm 7 m/S 757 mmHg 87%
    20:00 +11°C° 0,2 mm 7 m/S 757 mmHg 87%
    21:00 +11°C° 0,2 mm 7 m/S 758 mmHg 87%
    22:00 +11°C° 0,3 mm 6 m/S 758 mmHg 88%
    23:00 +11°C° 0,3 mm 6 m/S 758 mmHg 89%

    22 Januar, Montag

    Zeit Temperatur Niederschläge Wind Luftdruck Luftfeuchtigkeit
    00:00 +11°C° 0,3 mm 6 m/S 758 mmHg 90%
    01:00 +11°C° 0,3 mm 6 m/S 758 mmHg 91%
    02:00 +12°C° 0,3 mm 5 m/S 759 mmHg 91%
    03:00 +12°C° 0,3 mm 5 m/S 759 mmHg 92%
    04:00 +12°C° 0,1 mm 4 m/S 759 mmHg 93%
    05:00 +12°C° 0,1 mm 4 m/S 759 mmHg 94%
    06:00 +12°C° 0,1 mm 3 m/S 759 mmHg 94%
    07:00 +12°C° 0,4 mm 4 m/S 759 mmHg 94%
    08:00 +12°C° 0,4 mm 4 m/S 760 mmHg 94%
    09:00 +12°C° 0,4 mm 4 m/S 760 mmHg 93%
    10:00 +13°C° 0,1 mm 4 m/S 760 mmHg 91%
    11:00 +13°C° 0,1 mm 5 m/S 760 mmHg 90%
    12:00 +13°C° 0,1 mm 5 m/S 760 mmHg 88%
    13:00 +13°C° 0 mm 4 m/S 761 mmHg 87%
    14:00 +13°C° 0 mm 4 m/S 761 mmHg 87%
    15:00 +13°C° 0 mm 4 m/S 761 mmHg 86%
    16:00 +13°C° 0 mm 4 m/S 761 mmHg 87%
    17:00 +12°C° 0 mm 5 m/S 761 mmHg 88%
    18:00 +12°C° 0 mm 5 m/S 761 mmHg 89%
    19:00 +12°C° 0 mm 5 m/S 761 mmHg 87%
    20:00 +11°C° 0 mm 6 m/S 761 mmHg 86%
    21:00 +11°C° 0 mm 6 m/S 761 mmHg 84%
    22:00 +11°C° 0,1 mm 6 m/S 761 mmHg 84%
    23:00 +11°C° 0,1 mm 6 m/S 761 mmHg 84%

    23 Januar, Dienstag

    Zeit Temperatur Niederschläge Wind Luftdruck Luftfeuchtigkeit
    00:00 +10°C° 0,1 mm 6 m/S 761 mmHg 84%
    01:00 +10°C° 0 mm 6 m/S 762 mmHg 86%
    02:00 +10°C° 0 mm 5 m/S 762 mmHg 87%
    03:00 +10°C° 0 mm 5 m/S 762 mmHg 89%
    04:00 +11°C° 0 mm 4 m/S 763 mmHg 90%
    05:00 +10°C° 0 mm 4 m/S 763 mmHg 91%
    06:00 +10°C° 0 mm 4 m/S 763 mmHg 92%
    07:00 +10°C° 0 mm 4 m/S 764 mmHg 92%
    08:00 +10°C° 0 mm 4 m/S 764 mmHg 91%
    09:00 +10°C° 0 mm 3 m/S 765 mmHg 90%
    10:00 +11°C° 0 mm 4 m/S 765 mmHg 87%
    11:00 +11°C° 0 mm 4 m/S 765 mmHg 83%
    12:00 +12°C° 0 mm 4 m/S 765 mmHg 79%
    13:00 +12°C° 0 mm 3 m/S 765 mmHg 79%
    14:00 +12°C° 0 mm 3 m/S 765 mmHg 78%
    15:00 +12°C° 0 mm 3 m/S 765 mmHg 78%
    16:00 +12°C° 0 mm 3 m/S 765 mmHg 81%
    17:00 +11°C° 0 mm 3 m/S 765 mmHg 85%
    18:00 +10°C° 0 mm 3 m/S 765 mmHg 88%
    19:00 +10°C° 0 mm 3 m/S 765 mmHg 90%
    20:00 +10°C° 0 mm 3 m/S 765 mmHg 91%
    21:00 +10°C° 0 mm 3 m/S 765 mmHg 92%
    22:00 +10°C° 0 mm 3 m/S 764 mmHg 93%
    23:00 +10°C° 0 mm 3 m/S 764 mmHg 95%
    Mehr zeigen